Location: *
(24.1434°N, 56.8729°E)
Time: 18:36:20
(UTC+00:00)

Gbstr 26 Del rocket - Pass Details

Date: 09 April 2020
Orbit: 493 x 1263 km, 51.8° (Epoch: 05 June)

Event Time Altitude Azimuth Distance (km) Brightness Sun altitude
Exits shadow 23:42:01 47° 336° (NNW) 1,250 4.5 -29.9°
Drops below altitude 10° 23:46:53 10° 27° (NNE) 2,460 6.7 -28.9°
Sets 23:49:13 0° 33° (NNE) 3,278 7.6 -28.4°
